Tracking 35237 objects as of 5-Sep-2026
HD Live streaming from Space Station
objects crossing your sky now

E-KAGAKU-1


E-KAGAKU-1 is no longer on orbit
E-KAGAKU-1 is classified as:


NORAD ID: 65942
Int'l Code: 1998-067XP
Launch date: November 20, 1998
Source: International Space Station (ISS)
Launch site: TYURATAM MISSILE AND SPACE COMPLEX (TTMTR)
Decay date: 2026-03-04

Uplink (MHz):
Downlink (MHz): 145.825/437.375*
Beacon (MHz): 437.375
Mode: 1k2AFSK 4k8*GMSK APRS CW*
Call sign: JS1YPT
Status: Reentered


Uplink (MHz): 145.825
Downlink (MHz): 437.375
Beacon (MHz): 437.375
Mode: 1k2AFSK 4k8*GMSK APRS CW*
Call sign:
Status: Reentered

Your satellite tracking list
Your tracking list is empty




NASA's NSSDC Master Catalog

Two Line Element Set (TLE):
1 65942U 98067XP  26062.30429344  .04774432  12041-4  14537-2 0  9996
2 65942  51.6039  82.5602 0002915  47.4358 312.6908 16.26071015 22599
Source of the keplerian elements: AFSPC